Погода Шелагонцы

Хотите узнать прогноз погоды Шелагонцы? Тогда Вам сюда: Погода Шелагонцы

Поиск расширенной информации на нашем сайте:

Полезная информация:

Новости сайта



02.01.2020
Опубликован Долгосрочный прогноз погоды по городам России и ближнего зарубежья на январь 2020 года.
Карты: Прогноз на январь и февраль 2020 года, Сравнение прогнозируемой аномалии приземной температуры воздуха на январь 2020 года по разным моделям.




Погода Шелагонцы - сегодня

Время (UTC), дата Ветер
(°,м/с) 
Видим.   Явления Облачность Т
(°С)
Тd
(°С)
f(%) Тe
(°С)
Pmin
(гПа)
dP
(гПа)
Po
(мм)
O2
(г/м3)
Тmin Tmax R s Состояние
почвы
09 23.11.20 тихо ()   20000 м    4/0 верхняя 
[Cc]
-24.4 -25.6 90 -24  1016.3  1.7  738  328           
12 23.11.20 140 (ЮВ) 20000 м    3/0 верхняя 
[Ci fib]
-29.2 -30.9 85 -30  1018.2  1.2  739  335      0.0     
15 23.11.20 тихо ()   20000 м    ясно 
-30.8 -32.6 84 -31  1019.5  740  338           
18 23.11.20 тихо ()   20000 м    ясно 
-32.9 -34.5 86 -33  1020.2  0.4  740  341           
21 23.11.20 тихо ()   20000 м    ясно 
-33 -34.8 84 -33  1022.8  2.5  742  342           
00 24.11.20 тихо ()   20000 м    9/0 средняя 
[Ac As]
-27.2 -29 85 -27  1023.3  1.3  743  334  -33.2    0.0  25  равномерный
сухой снег
100% 
15 24.11.20 тихо ()   20000 м    ясно 
-32 -33.7 85 -32  1031.1  748  343           
18 24.11.20 тихо ()   20000 м    ясно 
-33.3 -34.4 90 -33  1032.4  1.1  749  346           
21 24.11.20 тихо ()   20000 м    ясно 
-34.8 -35.9 90 -35  1033.1  0.4  749  348           
00 25.11.20 тихо ()   20000 м    ясно 
-34.1 -35.9 84 -34  1033.8  0.8  750  347  -34.9    0.0  25  равномерный
сухой снег
100% 
03 25.11.20 тихо ()   20000 м    3/0 верхняя 
[Cc]
-34.3 -35.9 85 -34  1034.3  0.5  750  348           
06 25.11.20 тихо ()   10 км  снег  10/0 средняя 
[As op]
-30.7 -32.6 83 -31  1034.1  0.3  750  343           
09 25.11.20 тихо ()   10 км  снег  10/0 средняя 
[As op]
-33.5 -35.3 84 -34  1035.9  1.2  751  347           
12 25.11.20 тихо ()   10 км  снег  10/0 средняя 
[As op]
-31.8 -33.5 85 -32  1035.9  0.3  751  345    -30.6  0.6     
15 25.11.20 тихо ()   20000 м  слаб. снег  10/0 средняя 
[As op]
-32.3 -34 85 -32  1035.9  751  345           
18 25.11.20 тихо ()   20000 м  слаб. снег  10/0 средняя 
[As op]
-32.7 -33.9 89 -33  1036.1  0.1  752  346           
21 25.11.20 тихо ()   20000 м  слаб. снег  10/0 средняя 
[As op]
-33.1 -34.2 90 -33  1036.1  752  347           
00 26.11.20 270 (З) 20000 м  слаб. снег  10/0 средняя 
[As op]
-31.3 -33 85 -32  1035.3  -0.5  751  344  -33.1    0.3  26  равномерный
сухой снег
100% 
03 26.11.20 тихо ()   20000 м  {снег}  6/0 средняя, верхняя 
[Ac lent|Ci sp]
-29.8 -31.5 85 -30  1035.6  0.4  751  342           
06 26.11.20 тихо ()   20000 м  {снег}  3/0 средняя 
[Ac lent]
-30.5 -32.4 84 -31  1035  -0.3  751  343           
09 26.11.20 тихо ()   20000 м    8/0 средняя 
[Ac lent]
-32.8 -34.5 85 -33  1035.8  0.5  751  346           
12 26.11.20 тихо ()   50000 м    3/0 средняя 
[Ac lent]
-34.4 -36.2 83 -34  1035.8  -0.2  751  348    -29.8  0.2     
15 26.11.20 тихо ()   20000 м    3/0 средняя 
[Ac lent]
-35.8 -37.5 84 -36  1036.3  0.2  751  350           
18 26.11.20 тихо ()   20000 м    3/0 средняя 
[Ac lent]
-36.5 -38.2 84 -37  1036.9  0.5  752  352           
21 26.11.20 тихо ()   20000 м    ясно 
-36.9 -38.2 88 -37  1037.2  0.3  752  352           
Время (UTC), дата Ветер
(°,м/с) 
Видим.   Явления Облачность Т
(°С)
Тd
(°С)
f(%) Тe
(°С)
Pmin
(гПа)
dP
(гПа)
Po
(мм)
O2
(г/м3)
Тmin Tmax R s Состояние
почвы

Для получения пояснительной информации подведите курсор к названию столбца.

ПОГОДА Шелагонцы - архив

Всё, что Вы хотите узнать о погоде Шелагонцы - удобно и подробно!

Выберите нужную дату (начиная с 1 января 2019* года) и нажмите кнопку "Найти".
Будут отображены архивные сводки погоды по пункту Шелагонцы, начиная с указанной даты.


Отображать данные в формате CSV (для использования в таблицах Excel)


Внимание! Наш архив погоды предназначен исключительно для личного некоммерческого использования в познавательных целях. Если Вам необходимы официальные справки о состоянии погоды (для производственных, юридических, коммерческих и т.п. целей), обращайтесь в органы Росгидромета.

*Примечание: данная дата относится к архиву по метеостанциям СССР (Россия, СНГ, Балтия).
Архив по метеостанциям Зарубежной Европы и Азии (кроме Китая) хранится 10 дней, по другим регионам земного шара (Китай, Африка, Америка, Австралия, Океания) - 1 день.

Шелагонцы - район местоположения метеостанции


Название, широта, долгота, высота метеостанции:
Шелагонцы 66.2°ш. 114.3°д. 236 м над ур. моря [Российская Федерация]

Дополнительная информация

В oтличие oт бoльшинства пoгoдных сайтoв мы публикуем пoдрoбную метеoинфoрмацию в детальнoм прoфессиoнальнoм фoрмате.

Характеристики температуры и влажнoсти вoздуха измеряются на высoте 2 м в тени вдали oт зданий и деревьев.
Скoрoсть ветра измеряется на высoте 10 м (на урoвне рoста челoвека скoрoсть ветра ниже в 1.5-2 раза). Если метеoстанция нахoдится в гoрoде или в лесу, тo скoрoсть ветра занижена на 2-4 м/с пo сравнению с oткрытым местoм. Скoрoсть ветра над акватoриями крупных рек и oзёр, а также на вершинах хoлмoв на 2-5 м/с выше, чем в oбычных услoвиях.
Атмoсфернoе давление в разных тoчках местнoсти мoжет значительнo oтличаться oт давления на метеoстанции, в зависимoсти oт услoвий рельефа (при пoдъёме на 10 м давление пoнижается примернo на 1 мм рт.ст.).